AAL202 KBOS-KJFK

Flight info

Callsign AAL202
Flight time 0h 45m
Altitude 18000
Route SSOXS7 SSOXS BUZRD SEY PARCH4
Aircraft A319/M-SDE3FGHIRWY/LB1

Departure

Time 2026-05-04 20:38
Airport Boston Logan International Airport (KBOS)

Arrival

Time 2026-05-04 21:23
Airport John F. Kennedy International Airport (KJFK)
Time Latitude Longitude Altitude Speed Heading
2026-05-04 20:04 42.36779 -71.01735 26 ft 0 kts 214°
2026-05-04 20:29 42.36783 -71.01731 31 ft 4 kts 214°
2026-05-04 20:29 42.36805 -71.01710 28 ft 4 kts 217°
2026-05-04 20:30 42.36824 -71.01686 30 ft 4 kts 250°
2026-05-04 20:30 42.36826 -71.01669 30 ft 0 kts 289°
2026-05-04 20:33 42.36829 -71.01679 31 ft 5 kts 298°
2026-05-04 20:33 42.36884 -71.01674 27 ft 10 kts 34°
2026-05-04 20:34 42.36934 -71.01628 27 ft 11 kts 34°
2026-05-04 20:34 42.36973 -71.01593 26 ft 0 kts 34°
2026-05-04 20:34 42.36985 -71.01582 30 ft 6 kts 33°
2026-05-04 20:34 42.37038 -71.01538 30 ft 9 kts 44°
2026-05-04 20:35 42.37018 -71.01452 27 ft 12 kts 135°
2026-05-04 20:35 42.36946 -71.01357 26 ft 16 kts 135°
2026-05-04 20:35 42.36883 -71.01245 30 ft 12 kts 92°
2026-05-04 20:35 42.36949 -71.01153 26 ft 16 kts 40°
2026-05-04 20:36 42.37057 -71.01064 28 ft 20 kts 25°
2026-05-04 20:36 42.37195 -71.00976 27 ft 23 kts 26°
2026-05-04 20:36 42.37339 -71.00888 30 ft 24 kts 20°
2026-05-04 20:36 42.37511 -71.00805 28 ft 28 kts 20°
2026-05-04 20:37 42.37702 -71.00713 30 ft 30 kts 19°
2026-05-04 20:37 42.37837 -71.00618 26 ft 14 kts 69°
2026-05-04 20:37 42.37816 -71.00507 26 ft 13 kts 112°
2026-05-04 20:37 42.37772 -71.00483 30 ft 8 kts 201°
2026-05-04 20:38 42.37715 -71.00512 28 ft 12 kts 200°
2026-05-04 20:38 42.37400 -71.00667 29 ft 96 kts 199°
2026-05-04 20:38 42.36513 -71.01102 140 ft 163 kts 202°
2026-05-04 20:38 42.35411 -71.01632 941 ft 178 kts 197°
2026-05-04 20:39 42.34121 -71.01429 1830 ft 204 kts 164°
2026-05-04 20:39 42.32985 -71.00134 2719 ft 230 kts 135°
2026-05-04 20:39 42.31996 -70.98317 3601 ft 252 kts 124°
2026-05-04 20:39 42.31399 -70.96010 4499 ft 268 kts 101°
2026-05-04 20:40 42.31449 -70.93394 5380 ft 291 kts 80°
2026-05-04 20:40 42.31858 -70.90676 6266 ft 298 kts 78°
2026-05-04 20:40 42.32264 -70.87913 7118 ft 302 kts 78°
2026-05-04 20:40 42.32670 -70.85107 7984 ft 306 kts 77°
2026-05-04 20:41 42.32959 -70.82238 8870 ft 312 kts 86°
2026-05-04 20:41 42.32774 -70.79292 9786 ft 318 kts 101°
2026-05-04 20:41 42.32091 -70.76435 10626 ft 321 kts 115°
2026-05-04 20:41 42.31127 -70.73698 11487 ft 323 kts 120°
2026-05-04 20:42 42.29892 -70.71167 12361 ft 324 kts 131°
2026-05-04 20:42 42.28324 -70.69012 13274 ft 330 kts 144°
2026-05-04 20:42 42.26404 -70.67253 14142 ft 339 kts 155°
2026-05-04 20:42 42.24215 -70.66010 14984 ft 345 kts 166°
2026-05-04 20:43 42.21904 -70.64968 15857 ft 355 kts 166°
2026-05-04 20:43 42.19531 -70.63896 16747 ft 363 kts 165°
2026-05-04 20:43 42.17094 -70.62908 17596 ft 371 kts 171°
2026-05-04 20:43 42.14493 -70.62415 17920 ft 382 kts 181°
2026-05-04 20:44 42.11826 -70.62572 18020 ft 392 kts 192°
2026-05-04 20:44 42.09145 -70.63411 18026 ft 398 kts 202°
2026-05-04 20:44 42.06508 -70.64610 18026 ft 400 kts 202°
2026-05-04 20:44 42.03864 -70.65796 18026 ft 401 kts 202°
2026-05-04 20:45 42.01251 -70.66950 18027 ft 401 kts 202°
2026-05-04 20:45 41.98597 -70.68111 18053 ft 401 kts 202°
2026-05-04 20:45 41.95943 -70.69268 18060 ft 401 kts 202°
2026-05-04 20:45 41.93284 -70.70426 18055 ft 402 kts 202°
2026-05-04 20:46 41.90627 -70.71586 18050 ft 402 kts 202°
2026-05-04 20:46 41.87967 -70.72747 18055 ft 402 kts 202°
2026-05-04 20:46 41.85303 -70.73911 18057 ft 402 kts 202°
2026-05-04 20:46 41.82741 -70.75330 18060 ft 397 kts 212°
2026-05-04 20:47 41.80331 -70.77136 18051 ft 396 kts 213°
2026-05-04 20:47 41.78742 -70.78333 18039 ft 397 kts 213°
2026-05-04 20:47 41.76334 -70.80143 18056 ft 397 kts 214°
2026-05-04 20:47 41.73146 -70.82537 18063 ft 396 kts 213°
2026-05-04 20:48 41.71520 -70.83757 18066 ft 397 kts 213°
2026-05-04 20:48 41.68335 -70.86145 18066 ft 397 kts 213°
2026-05-04 20:48 41.65924 -70.87948 18072 ft 397 kts 213°
2026-05-04 20:48 41.64296 -70.89168 18065 ft 397 kts 213°
2026-05-04 20:49 41.61925 -70.90942 18066 ft 397 kts 213°
2026-05-04 20:49 41.59512 -70.92746 18069 ft 397 kts 213°
2026-05-04 20:49 41.57105 -70.94547 18069 ft 397 kts 214°
2026-05-04 20:49 41.54864 -70.96563 17963 ft 377 kts 224°
2026-05-04 20:50 41.53049 -70.98926 17825 ft 355 kts 234°
2026-05-04 20:50 41.51513 -71.01453 17694 ft 348 kts 235°
2026-05-04 20:50 41.49991 -71.03951 17563 ft 346 kts 235°
2026-05-04 20:50 41.48471 -71.06433 17432 ft 345 kts 235°
2026-05-04 20:51 41.46951 -71.08905 17320 ft 344 kts 234°
2026-05-04 20:51 41.45429 -71.11367 17197 ft 344 kts 234°
2026-05-04 20:51 41.43911 -71.13826 17130 ft 343 kts 234°
2026-05-04 20:51 41.42420 -71.16243 17048 ft 342 kts 234°
2026-05-04 20:52 41.40911 -71.18686 16966 ft 341 kts 234°
2026-05-04 20:52 41.39403 -71.21130 16889 ft 341 kts 234°
2026-05-04 20:52 41.37899 -71.23567 16802 ft 341 kts 234°
2026-05-04 20:52 41.36392 -71.26002 16733 ft 340 kts 234°
2026-05-04 20:53 41.34887 -71.28433 16658 ft 340 kts 234°
2026-05-04 20:53 41.33387 -71.30859 16588 ft 340 kts 234°
2026-05-04 20:53 41.31883 -71.33285 16505 ft 339 kts 234°
2026-05-04 20:53 41.30403 -71.35672 16428 ft 339 kts 234°
2026-05-04 20:54 41.28902 -71.38089 16351 ft 338 kts 234°
2026-05-04 20:54 41.27406 -71.40499 16275 ft 338 kts 234°
2026-05-04 20:54 41.25906 -71.42909 16199 ft 338 kts 234°
2026-05-04 20:54 41.24410 -71.45310 16122 ft 337 kts 234°
2026-05-04 20:55 41.22915 -71.47710 16050 ft 337 kts 234°
2026-05-04 20:55 41.21419 -71.50110 15974 ft 337 kts 234°
2026-05-04 20:55 41.19929 -71.52499 15900 ft 336 kts 234°
2026-05-04 20:55 41.18471 -71.54923 15826 ft 334 kts 239°
2026-05-04 20:56 41.17308 -71.57565 15739 ft 330 kts 248°
2026-05-04 20:56 41.16495 -71.60396 15665 ft 327 kts 256°
2026-05-04 20:56 41.16038 -71.63304 15590 ft 325 kts 263°
2026-05-04 20:56 41.15682 -71.66266 15520 ft 325 kts 263°
2026-05-04 20:57 41.15319 -71.69228 15440 ft 325 kts 263°
2026-05-04 20:57 41.14953 -71.72179 15369 ft 325 kts 262°
2026-05-04 20:57 41.14583 -71.75138 15297 ft 325 kts 262°
2026-05-04 20:57 41.14213 -71.78084 15217 ft 323 kts 262°
2026-05-04 20:58 41.13844 -71.81023 15134 ft 323 kts 262°
2026-05-04 20:58 41.13477 -71.83957 15064 ft 322 kts 262°
2026-05-04 20:58 41.13112 -71.86886 14994 ft 322 kts 262°
2026-05-04 20:58 41.12745 -71.89810 14921 ft 321 kts 262°
2026-05-04 20:59 41.12381 -71.92694 14846 ft 321 kts 262°
2026-05-04 20:59 41.12013 -71.95608 14774 ft 320 kts 262°
2026-05-04 20:59 41.11646 -71.98521 14700 ft 320 kts 262°
2026-05-04 20:59 41.11279 -72.01423 14627 ft 320 kts 262°
2026-05-04 21:00 41.10909 -72.04327 14550 ft 319 kts 262°
2026-05-04 21:00 41.10540 -72.07226 14484 ft 318 kts 262°
2026-05-04 21:00 41.10173 -72.10123 14416 ft 318 kts 262°
2026-05-04 21:00 41.09701 -72.12991 14343 ft 319 kts 255°
2026-05-04 21:01 41.09014 -72.15782 14271 ft 319 kts 253°
2026-05-04 21:01 41.08319 -72.18575 14206 ft 319 kts 254°
2026-05-04 21:01 41.07628 -72.21362 14131 ft 319 kts 254°
2026-05-04 21:01 41.06947 -72.24110 14060 ft 318 kts 254°
2026-05-04 21:02 41.06261 -72.26874 13981 ft 309 kts 253°
2026-05-04 21:02 41.05604 -72.29505 13908 ft 293 kts 253°
2026-05-04 21:02 41.04981 -72.32010 13840 ft 285 kts 253°
2026-05-04 21:02 41.04365 -72.34489 13767 ft 283 kts 253°
2026-05-04 21:03 41.03751 -72.36962 13688 ft 282 kts 253°
2026-05-04 21:03 41.03142 -72.39419 13601 ft 281 kts 253°
2026-05-04 21:03 41.02532 -72.41875 13521 ft 280 kts 253°
2026-05-04 21:03 41.01927 -72.44294 13394 ft 280 kts 253°
2026-05-04 21:04 41.01316 -72.46734 13261 ft 279 kts 253°
2026-05-04 21:04 41.00705 -72.49173 13162 ft 279 kts 253°
2026-05-04 21:04 41.00094 -72.51607 13071 ft 278 kts 253°
2026-05-04 21:04 40.99485 -72.54038 12961 ft 278 kts 253°
2026-05-04 21:05 40.98892 -72.56402 12861 ft 278 kts 253°
2026-05-04 21:05 40.98272 -72.58866 12757 ft 277 kts 253°
2026-05-04 21:05 40.97662 -72.61286 12662 ft 277 kts 253°
2026-05-04 21:05 40.97052 -72.63707 12552 ft 277 kts 253°
2026-05-04 21:06 40.96441 -72.66119 12454 ft 277 kts 253°
2026-05-04 21:06 40.95838 -72.68492 12352 ft 277 kts 253°
2026-05-04 21:06 40.95229 -72.70900 12248 ft 276 kts 253°
2026-05-04 21:06 40.94622 -72.73305 12112 ft 276 kts 253°
2026-05-04 21:07 40.93983 -72.75693 11938 ft 276 kts 250°
2026-05-04 21:07 40.93118 -72.77960 11736 ft 276 kts 242°
2026-05-04 21:07 40.92014 -72.80043 11562 ft 278 kts 234°
2026-05-04 21:07 40.90690 -72.81909 11380 ft 279 kts 226°
2026-05-04 21:08 40.89171 -72.83525 11185 ft 281 kts 220°
2026-05-04 21:08 40.87590 -72.85030 11014 ft 280 kts 220°
2026-05-04 21:08 40.86034 -72.86518 10845 ft 279 kts 220°
2026-05-04 21:08 40.84466 -72.88024 10671 ft 278 kts 220°
2026-05-04 21:09 40.82902 -72.89528 10500 ft 278 kts 220°
2026-05-04 21:09 40.81340 -72.91026 10334 ft 277 kts 220°
2026-05-04 21:09 40.79782 -72.92519 10170 ft 276 kts 220°
2026-05-04 21:09 40.78273 -72.93962 10002 ft 276 kts 220°
2026-05-04 21:10 40.76748 -72.95417 9844 ft 275 kts 220°
2026-05-04 21:10 40.75200 -72.96895 9664 ft 274 kts 220°
2026-05-04 21:10 40.73681 -72.98348 9479 ft 273 kts 220°
2026-05-04 21:10 40.72154 -72.99817 9296 ft 271 kts 222°
2026-05-04 21:11 40.70807 -73.01530 9131 ft 267 kts 233°
2026-05-04 21:11 40.69765 -73.03533 9022 ft 264 kts 244°
2026-05-04 21:11 40.69042 -73.05746 9033 ft 262 kts 254°
2026-05-04 21:11 40.68652 -73.08083 9040 ft 262 kts 264°
2026-05-04 21:12 40.68596 -73.10475 9031 ft 261 kts 271°
2026-05-04 21:12 40.68617 -73.12869 9021 ft 261 kts 271°
2026-05-04 21:12 40.68629 -73.15232 9021 ft 261 kts 270°
2026-05-04 21:12 40.68637 -73.17651 9001 ft 262 kts 270°
2026-05-04 21:13 40.68661 -73.20019 8663 ft 260 kts 274°
2026-05-04 21:13 40.69092 -73.22310 8330 ft 258 kts 288°
2026-05-04 21:13 40.69671 -73.24541 8012 ft 257 kts 288°
2026-05-04 21:13 40.70248 -73.26760 7672 ft 255 kts 287°
2026-05-04 21:14 40.70820 -73.28963 7340 ft 253 kts 287°
2026-05-04 21:14 40.71387 -73.31155 7011 ft 252 kts 286°
2026-05-04 21:14 40.71952 -73.33341 6718 ft 252 kts 286°
2026-05-04 21:14 40.72518 -73.35524 6427 ft 251 kts 286°
2026-05-04 21:15 40.73040 -73.37542 6137 ft 246 kts 286°
2026-05-04 21:15 40.73579 -73.39632 5870 ft 236 kts 286°
2026-05-04 21:15 40.74096 -73.41637 5611 ft 227 kts 286°
2026-05-04 21:15 40.74598 -73.43573 5361 ft 220 kts 286°
2026-05-04 21:16 40.75088 -73.45467 5105 ft 217 kts 285°
2026-05-04 21:16 40.75568 -73.47340 4855 ft 215 kts 285°
2026-05-04 21:16 40.76046 -73.49206 4604 ft 215 kts 285°
2026-05-04 21:16 40.76521 -73.51068 4344 ft 214 kts 286°
2026-05-04 21:17 40.76996 -73.52932 4088 ft 215 kts 285°
2026-05-04 21:17 40.77472 -73.54797 3827 ft 215 kts 286°
2026-05-04 21:17 40.77951 -73.56667 3576 ft 215 kts 285°
2026-05-04 21:17 40.78427 -73.58527 3325 ft 213 kts 285°
2026-05-04 21:18 40.78823 -73.60376 3087 ft 211 kts 275°
2026-05-04 21:18 40.78770 -73.62252 2992 ft 199 kts 257°
2026-05-04 21:18 40.78294 -73.63872 3007 ft 182 kts 240°
2026-05-04 21:18 40.77529 -73.65142 2903 ft 175 kts 226°
2026-05-04 21:19 40.76585 -73.66030 2742 ft 156 kts 213°
2026-05-04 21:19 40.75689 -73.66731 2555 ft 145 kts 215°
2026-05-04 21:19 40.74852 -73.67388 2376 ft 136 kts 214°
2026-05-04 21:19 40.74056 -73.68013 2198 ft 131 kts 215°
2026-05-04 21:20 40.73299 -73.68607 2034 ft 123 kts 214°
2026-05-04 21:20 40.72572 -73.69177 1864 ft 119 kts 213°
2026-05-04 21:20 40.71873 -73.69726 1712 ft 115 kts 213°
2026-05-04 21:20 40.71182 -73.70269 1557 ft 117 kts 212°
2026-05-04 21:21 40.70487 -73.70814 1401 ft 116 kts 212°
2026-05-04 21:21 40.69788 -73.71361 1249 ft 118 kts 210°
2026-05-04 21:21 40.69091 -73.71908 1087 ft 116 kts 211°
2026-05-04 21:21 40.68405 -73.72445 934 ft 114 kts 210°
2026-05-04 21:22 40.67732 -73.72973 791 ft 112 kts 209°
2026-05-04 21:22 40.67066 -73.73494 634 ft 110 kts 206°
2026-05-04 21:22 40.66417 -73.74002 501 ft 112 kts 208°
2026-05-04 21:22 40.65751 -73.74520 345 ft 109 kts 206°
2026-05-04 21:23 40.65101 -73.75042 203 ft 110 kts 204°
2026-05-04 21:23 40.64435 -73.75558 73 ft 110 kts 205°
2026-05-04 21:23 40.63811 -73.76051 22 ft 91 kts 207°
2026-05-04 21:23 40.63416 -73.76348 24 ft 40 kts 211°
2026-05-04 21:24 40.63268 -73.76558 21 ft 24 kts 240°
2026-05-04 21:24 40.63248 -73.76737 20 ft 18 kts 290°
2026-05-04 21:24 40.63298 -73.76858 21 ft 15 kts 300°
2026-05-04 21:24 40.63352 -73.76967 21 ft 15 kts 305°
2026-05-04 21:25 40.63411 -73.77095 21 ft 18 kts 300°
2026-05-04 21:25 40.63483 -73.77256 22 ft 22 kts 300°
2026-05-04 21:25 40.63536 -73.77373 22 ft 0 kts 301°
2026-05-04 21:26 40.63536 -73.77374 21 ft 1 kts 301°
2026-05-04 21:27 40.63558 -73.77422 22 ft 13 kts 301°
2026-05-04 21:27 40.63615 -73.77544 21 ft 17 kts 301°
2026-05-04 21:27 40.63665 -73.77645 20 ft 10 kts 304°
2026-05-04 21:27 40.63732 -73.77654 21 ft 13 kts 30°
2026-05-04 21:28 40.63779 -73.77617 20 ft 16 kts 32°
2026-05-04 21:28 40.63885 -73.77532 21 ft 20 kts 31°
2026-05-04 21:28 40.64009 -73.77435 22 ft 22 kts 31°
2026-05-04 21:28 40.64137 -73.77334 21 ft 21 kts 31°
2026-05-04 21:29 40.64248 -73.77248 22 ft 19 kts 30°
2026-05-04 21:29 40.64362 -73.77159 21 ft 18 kts 31°
2026-05-04 21:29 40.64478 -73.77091 21 ft 18 kts
2026-05-04 21:29 40.64611 -73.77089 21 ft 19 kts 360°
2026-05-04 21:30 40.64715 -73.77158 21 ft 16 kts 306°
2026-05-04 21:30 40.64771 -73.77290 22 ft 13 kts 299°
2026-05-04 21:30 40.64773 -73.77361 22 ft 8 kts 218°
2026-05-04 21:30 40.64736 -73.77408 22 ft 8 kts 239°
2026-05-04 21:31 40.64676 -73.77529 21 ft 2 kts 237°
2026-05-04 21:31 40.64675 -73.77531 21 ft 0 kts 237°